DW5450 Weather Reports


time (UTC)temp
F
wind
direction
speed
knots
gust
knots
rain 1hr
in
rain 24hr
in
rain mn
in
humidity
%
barometer
mb
20260831121554 81 355 0.0 2.6 0.00 0.00 0.00 78 1010.3
20260831120052 81 322 0.0 1.7 0.00 0.00 0.00 78 1010.3
20260831114551 81 321 0.0 1.7 0.00 0.00 0.00 77 1010.3
20260831113053 81 321 0.0 1.7 0.00 0.00 0.00 76 1010.4
20260831111547 81 313 1.7 2.6 0.00 0.00 0.00 76 1010.3
20260831104540 81 329 0.0 1.7 0.00 0.00 0.00 75 1010.0
20260831103039 81 312 0.0 3.5 0.00 0.00 0.00 75 1009.9
20260831101549 81 315 0.0 4.3 0.00 0.00 0.00 75 1009.9
20260831100045 81 319 0.0 0.9 0.00 0.00 0.00 75 1010.0
20260831094540 81 319 0.0 0.9 0.00 0.00 0.00 75 1010.1
20260831093035 81 319 0.0 0.9 0.00 0.00 0.00 75 1010.1
20260831091533 81 319 0.0 0.9 0.00 0.00 0.00 75 1010.4
20260831090030 82 319 0.0 0.9 0.00 0.00 0.00 75 1010.5
20260831084529 82 319 0.0 1.7 0.00 0.00 0.00 75 1010.7
20260831083027 82 311 0.0 0.9 0.00 0.00 0.00 75 1010.8
20260831081527 82 311 0.0 3.5 0.00 0.00 0.00 76 1010.8
20260831080026 82 338 0.0 2.6 0.00 0.00 0.00 76 1010.8
20260831074527 82 341 0.0 0.9 0.00 0.00 0.00 76 1010.7
20260831073028 82 341 0.0 1.7 0.00 0.00 0.00 75 1010.6
20260831071522 83 28 0.0 0.9 0.00 0.00 0.00 75 1010.7
20260831070028 83 28 0.0 1.7 0.00 0.00 0.00 74 1010.8
20260831064519 83 28 0.0 0.9 0.00 0.00 0.00 73 1010.7
20260831063018 84 28 0.0 0.9 0.00 0.00 0.00 73 1010.8
20260831061518 84 28 0.0 1.7 0.00 0.00 0.00 72 1010.9
20260831060017 84 28 0.0 1.7 0.00 0.00 0.00 72 1010.9
20260831054517 84 28 0.0 0.9 0.00 0.00 0.00 72 1011.0
20260831053017 84 28 0.0 0.9 0.00 0.00 0.00 73 1011.1
20260831051524 84 28 0.0 0.0 0.00 0.00 0.00 73 1010.9
20260831050016 84 28 0.0 0.0 0.00 0.00 0.00 73 1010.9
20260831044516 85 28 0.0 0.9 0.00 0.00 0.00 73 1010.8
20260831043015 85 28 0.0 0.9 0.00 0.00 0.00 73 1010.8
20260831041523 85 28 0.0 0.9 0.00 0.00 0.00 73 1010.7
20260831040014 86 28 0.0 1.7 0.00 0.00 0.00 72 1010.4
20260831034516 86 28 0.0 2.6 0.00 0.00 0.00 71 1010.3
20260831033014 86 40 0.0 1.7 0.00 0.00 0.00 70 1010.0
20260831031512 86 101 0.0 0.9 0.00 0.00 0.00 69 1009.7
20260831030016 86 101 0.0 0.9 0.00 0.00 0.00 68 1009.6
20260831024512 87 106 0.0 0.9 0.00 0.00 0.00 66 1009.6
20260831023012 88 106 0.0 0.9 0.00 0.00 0.00 65 1009.4
20260831021511 88 106 0.0 0.0 0.00 0.00 0.00 63 1009.1
20260831020011 89 106 0.0 0.9 0.00 0.00 0.00 63 1009.1
20260831014510 90 106 0.0 0.9 0.00 0.00 0.00 61 1008.7
20260831013010 90 106 0.0 0.9 0.00 0.00 0.00 62 1008.4
20260831011514 91 106 0.0 0.0 0.00 0.00 0.00 62 1008.4
20260831010010 91 106 0.0 0.0 0.00 0.00 0.00 63 1008.2
20260831004508 91 106 0.0 1.7 0.00 0.00 0.00 64 1008.1
20260831003007 91 106 0.0 1.7 0.00 0.00 0.00 64 1008.0
20260831001508 91 119 0.0 1.7 0.00 0.00 0.00 63 1007.7
20260831000007 91 121 0.0 1.7 0.00 0.00 0.00 61 1007.6
20260830234505 92 54 0.0 0.0 0.00 0.00 0.00 62 1007.7
20260830233005 92 279 0.0 0.9 0.00 0.00 0.00 60 1007.8
20260830231506 92 279 0.0 0.9 0.00 0.00 0.00 58 1008.0
20260830230002 93 279 0.0 1.7 0.00 0.00 0.00 56 1008.2
20260830224559 92 282 0.0 2.6 0.00 0.00 0.00 58 1008.4
20260830223101 90 218 0.9 7.0 0.00 0.00 0.00 59 1008.5
20260830221557 89 189 0.9 5.2 0.00 0.00 0.00 63 1008.7
20260830220054 89 224 0.0 5.2 0.00 0.00 0.00 65 1009.0
20260830214553 90 171 0.9 6.1 0.00 0.00 0.00 62 1009.1
20260830213051 88 194 0.9 3.5 0.00 0.00 0.00 60 1009.2
20260830211551 88 254 0.9 5.2 0.00 0.00 0.00 60 1009.5
20260830210051 87 247 0.9 5.2 0.00 0.00 0.00 62 1009.8
20260830204544 86 246 1.7 7.0 0.00 0.00 0.00 62 1010.2
20260830203054 86 250 2.6 7.8 0.00 0.00 0.00 64 1010.5
20260830201547 87 253 0.9 6.1 0.00 0.00 0.00 65 1010.8
20260830200040 87 87 0.0 0.9 0.00 0.00 0.00 65 1011.1
20260830194539 87 85 0.9 5.2 0.00 0.00 0.00 64 1011.2
20260830193039 89 88 0.0 7.8 0.00 0.00 0.00 65 1011.3
20260830191539 92 127 1.7 11.3 0.00 0.00 0.00 64 1010.9
20260830190038 94 148 0.9 10.4 0.00 0.00 0.00 64 1011.3
20260830184536 93 189 3.5 9.6 0.00 0.00 0.00 67 1011.3
20260830183035 94 153 5.2 10.4 0.00 0.00 0.00 70 1011.6
20260830181539 94 163 2.6 7.0 0.00 0.00 0.00 69 1011.5
20260830180036 93 153 2.6 8.7 0.00 0.00 0.00 70 1011.7
20260830174534 93 166 3.5 9.6 0.00 0.00 0.00 69 1011.9
20260830173039 95 124 0.9 4.3 0.00 0.00 0.00 64 1012.1
20260830171529 94 5 2.6 6.1 0.00 0.00 0.00 63 1012.1
20260830170025 93 309 3.5 7.8 0.00 0.00 0.00 64 1012.1
20260830164532 92 63 1.7 7.8 0.00 0.00 0.00 66 1012.3
20260830163022 92 330 2.6 7.8 0.00 0.00 0.00 67 1012.4
20260830161521 91 321 1.7 9.6 0.00 0.00 0.00 69 1012.4
20260830160017 90 21 1.7 6.1 0.00 0.00 0.00 70 1012.4
20260830154512 89 311 0.9 7.0 0.00 0.00 0.00 72 1012.3
20260830153009 88 43 1.7 7.8 0.00 0.00 0.00 73 1012.3
20260830151506 87 339 0.9 7.8 0.00 0.00 0.00 73 1012.3
20260830150002 85 355 0.0 6.1 0.00 0.00 0.00 74 1012.3
20260830144603 84 5 0.9 5.2 0.00 0.00 0.00 74 1012.2
20260830143059 82 360 0.0 5.2 0.00 0.00 0.00 76 1012.0
20260830141555 80 327 0.0 7.0 0.00 0.00 0.00 77 1011.9
20260830140051 79 325 0.9 3.5 0.00 0.00 0.00 78 1011.8
20260830134550 79 319 0.0 3.5 0.00 0.00 0.00 79 1011.7
20260830133124 79 328 0.0 3.5 0.00 0.00 0.00 80 1011.7
20260830131609 78 337 0.0 1.7 0.00 0.00 0.00 81 1011.5
20260830130049 78 337 0.0 2.6 0.00 0.00 0.00 82 1011.3
20260830124605 78 344 0.0 1.7 0.00 0.00 0.00 83 1011.3
20260830123051 79 344 0.0 1.7 0.00 0.00 0.00 83 1011.5